STARLINK-32834, 62875

Orbit data source: Space-Track

STARLINK-32834, 62875 is a payload satellite owned by SpaceX/Seattle (US) in LEO that was launched on Sat, 01 Feb 2025 UTC via an FALCON 9 launch vehicle from the Air Force Western Test Range (AFWTR). Payload-class satellites include a variety of spacecraft equipped with specific instruments for various scientific and technological missions. These include communications satellites like Starlink; space stations such as the ISS; scientific satellites like the Hubble; Earth observation satellites from companies like Planet Labs, Umbra, and HawkEye 360; GPS; miniature CubeSats for education and research; and military/defense satellites.

Loading next visibility...
Identifier
62875, 2025-022X
Orbit
LEO
Country
Flag of USUS
Related business
Manufacturer
SpaceX/Seattle
Mission
Operational Commercial Communications
Bus & Motor
STARLINK V2M, Unknown motor
Mass
730 kg wet, ~700 kg dry
Launch date (UTC)
2025-02-01 (1 year ago)
Launch vehicle
FALCON 9
Launch site
Air Force Western Test Range (AFWTR)
Object type
Payload
Rocket body
Debris
Shape & HBR
Box + 2 Pan, 17.7 m
Radar Cross Section
33.884 m², Large (>1 m²)

Expand to show TLE details & history
Last TLE update: 5 hours ago

TLE from 5 hours ago
0 STARLINK-32834
1 62875U 25022X   26126.96805036  .00019062  00000-0  65431-3 0  9993
2 62875  53.1585 218.8580 0001328  94.1130 266.0022 15.30187300 70824
Epoch: 2026-05-06T23:13Z
TLE epoch observation values (Epoch: 2026-05-06T23:13:59.551Z)
Latitude
-0.00005°
Longitude
5.5389°
Altitude
476.216 km
Speed
7.629 km/s
True Right ascension
14h 35m 25s
True Declination
0° 00' 00"
Sunlit
Object was in full shadow at epoch
Visualization orbit readout
Latitude
Unknown
Longitude
Unknown
Altitude
Unknown
Speed
Unknown
Apparent Right ascension
Unknown
Apparent Declination
Unknown
Sunlit
N/A
Visualization observer readout
Local Sidereal Time
11:53:14
Azimuth
Unknown
Elevation
Unknown
Doppler factor
Unknown
Orbital elements
Apogee altitude
476.42 km
Perigee altitude
474.599 km
Semi-major axis
6,853.647 km
Eccentricity
0.00013
Inclination
53.1585°
RAAN
218.858°
Arg. of periapsis
94.113°
True anomaly
265.98702°
Mean anomaly
266.0022°
Eccentric anomaly
265.99461°
Mean motion
3.82526 °/min
Orbital period
94.11 mins
BSTAR
0.00065431
Loading maneuver chart data...
Computing Atmospheric mass density...
Loading historical data...
Loading historical data...
Loading historical data...
Loading historical data...
Loading historical data...
Loading historical data...
Loading historical data...

Documentation

Showing up to 5 results
|